Regional Weather Roundup
Issued by NWS Bismarck, ND

Home | Current Version | Previous Version | Text Only | Print | Product List | Glossary On
Versions: 1 2 3 4 5 6 7 8 9 10 11 12 13 14 15 16 17 18 19 20 21 22 23 24 25 26 27 28 29 30 31 32 33 34 35 36 37 38 39 40 41 42 43 44 45 46 47 48 49 50
000
ASUS43 KBIS 021120
RWRBIS

NWR BROADCAST TEXT
NATIONAL WEATHER SERVICE BISMARCK ND
500 AM CST MON MAR 02 2015

NOTE: "FAIR" INDICATES FEW OR NO CLOUDS BELOW 12,000 FEET WITH NO
SIGNIFICANT WEATHER AND/OR OBSTRUCTIONS TO VISIBILITY.


CITY           SKY/WX    TMP DP  RH WIND       PRES   REMARKS
WILLISTON      PTCLDY    11   4  73 S7        30.07F WCI   0
MINOT          FAIR      11   2  67 S9        30.17F WCI  -2
MINOT AFB      FAIR       8   3  82 S10       30.16F WCI  -6
BISMARCK       PTCLDY     6   2  83 SE9       30.26F WCI  -8
DICKINSON      CLEAR      8   3  80 S10       30.07F WCI  -6
GARRISON         N/A      1  -2  87 E5        30.17F WCI  -9
HETTINGER ARPT CLEAR     11   6  81 SE12      30.11F WCI  -3
JAMESTOWN      PTCLDY     1  -3  83 S3        30.29F
BEACH          FAIR       9   7  92 S13       30.03F WCI  -7
CARRINGTON     FAIR       7   5  92 MISG      30.28F
CROSBY         FAIR       5   0  78 S12       30.06F WCI -11
HARVEY         FAIR       5   1  85 S8        30.24F WCI  -8
HAZEN          FAIR      10   5  79 S12       30.19F WCI  -4
LINTON         FAIR       5   3  92 SE14      30.27F WCI -12
MANDAN         FAIR       5   1  85 S10       30.23F WCI -10
OAKES            N/A     -2  -8  78 S9        30.35F WCI -18
RUGBY          FAIR       1   0  92 S8        30.22F WCI -12
TIOGA          FLURRIES   7   7 100 S13       30.09F WCI  -9
WATFORD CITY   FAIR      12   7  79 S6        30.07F WCI   3
$$

CITY           SKY/WX    TMP DP  RH WIND       PRES   REMARKS
GRAND FORKS    PTCLDY    -5  -9  83 SW7       30.35R WCI -19
GRAND FORKS AF PTCLDY     2  -3  79 SW6       30.34S WCI  -9
DEVILS LAKE    PTCLDY     1  -4  78 CALM      30.26F
FARGO          MOCLDY     2  -4  76 SW9       30.39S WCI -13
CANDO          FAIR      -4  -9  77 S5        30.25F WCI -15
CAVALIER       FAIR       1   0  92 SW3       30.30S
GWINNER        SUNNY      5   0  78 SW8       30.37F WCI  -8
ROLLA          FAIR       5   1  85 SW7       30.20F WCI  -7
WALHALLA         N/A      1   1 100 SW3       30.29S
$$

CITY           SKY/WX    TMP DP  RH WIND       PRES   REMARKS
ABERDEEN       FOG        2   0  91 S5        30.39F VSB 1/4 WCI  -8
MOBRIDGE       PTCLDY     9   6  88 SE9       30.26F WCI  -4
BUFFALO          N/A     12   5  73 SE17      29.96F WCI  -5
RAPID CITY     MOCLDY    15   8  73 S17       30.08F WCI  -1
GLASGOW        PTCLDY    17   9  70 SE15      29.89F WCI   2
SIDNEY         CLEAR      9   7  92 S5        30.07F WCI   0
WOLF POINT     PTCLDY    11   6  81 NE7       29.98F WCI   0
GLENDIVE       PTCLDY    10   3  72 SE3       30.00F
MILES CITY     PTCLDY    15   7  70 S15       29.95F WCI   0
BAKER          CLEAR     13   6  74 SE18      30.01F WCI  -4
$$

CITY           SKY/WX    TMP DP  RH WIND       PRES   REMARKS
BILLINGS       CLEAR     20   8  60 SW8       29.88F WCI  10
GREAT FALLS    MOCLDY    29  10  45 SW18      29.78F WCI  16
REGINA         CLEAR      1  -4  78 SE17      29.96F WCI -19
ESTEVAN        MOCLDY     0  -6  78 SE9       30.07F WCI -16
$$




USA.gov is the U.S. government's official web portal to all federal, state and local government web resources and services.